Simultaneous Nadir Overpasses (SNOs) Predictions

Prediction of SNOs between NOAA-19 and NPP Satellite Orbit:

Table of predicted SNOs for the next 14.0 days since TLE Epoch: 5/10/2019
Index Date (NOAA-19) Time (NOAA-19) Lat,Lon (NOAA-19) SZA (NOAA-19 ) Date (NPP) Time (NPP) Lat,Lon (NPP) SZA (NPP ) Distance(km) Time Diff (sec)
1 05/24/2019 02:21:09 -79.96, -76.85 118.17 05/24/2019 02:22:18 -79.99, -74.35 118.48 48.51 69
2 05/24/2019 03:12:03 80.09, 92.14 61.72 05/24/2019 03:13:06 80.08, 92.04 61.69 2.29 63
3 05/24/2019 04:03:04 -80.10,-100.52 118.30 05/24/2019 04:03:51 -80.08,-100.65 118.32 3.17 47
4 05/24/2019 04:54:04 80.09, 66.59 61.71 05/24/2019 04:54:36 80.08, 66.64 61.68 1.16 32
5 05/24/2019 05:45:05 -80.10,-126.06 118.31 05/24/2019 05:45:21 -80.08,-126.04 118.33 1.52 16
6 05/24/2019 06:36:04 80.11, 41.36 61.68 05/24/2019 06:36:06 80.09, 41.25 61.67 3.39 2
7 05/24/2019 07:27:06 -80.09,-151.60 118.32 05/24/2019 07:26:51 -80.08,-151.44 118.34 3.29 15
8 05/24/2019 08:18:05 80.10, 15.81 61.67 05/24/2019 08:17:36 80.09, 15.85 61.67 2.10 29
9 05/24/2019 09:09:07 -80.09,-177.14 118.33 05/24/2019 09:08:22 -80.11,-177.13 118.29 2.69 45
10 05/24/2019 10:00:06 80.10, -9.73 61.66 05/24/2019 09:59:07 80.12, -9.85 61.71 2.80 59




NCC Satellite Simultaneous Nadir Overpasses (SNOs) Prediction Service
